Aspen, CO

4:05 AM MDT on July 24, 2017 (GMT -0600)
Aspen-Pitkin County / Sardy Field

Weather History for KASE - December, 2012

Change the Weather History Date:

Wednesday, December 5, 2012

  Actual Average Record
Temperature  
Mean Temperature 37 °F 21 °F  
Max Temperature 52 °F 33 °F 52 °F (2012)
Min Temperature 21 °F 10 °F -19 °F (2013)
Degree Days  
Heating Degree Days 28 44  
Month to date heating degree days 151 215  
Since 1 July heating degree days 2043 2541  
Cooling Degree Days 0 0  
Month to date cooling degree days 0 0  
Year to date cooling degree days 106 39  
Moisture  
Dew Point 21 °F    
Average Humidity 55    
Maximum Humidity 81    
Minimum Humidity 28    
Precipitation  
Precipitation T in 0.04 in 0.55 in (1983)
Month to date precipitation 0.03 0.18  
Year to date precipitation 11.77 16.30  
Sea Level Pressure  
Sea Level Pressure 30.12 in    
Wind  
Wind Speed 5 mph (SSW)    
Max Wind Speed 15 mph    
Max Gust Speed 20 mph    
Visibility 10 miles    
Events Snow    
T = Trace of Precipitation, MM = Missing Value Source: NWS Daily Summary

Daily Weather History Graph

Daily Weather History Graph

Search for Another Location

Airport or City:

Trip Planner

Search our weather history database for the weather conditions in past years. The results will help you decide how hot, cold, wet, or windy it might be!

Date:

Astronomy

Dec. 05, 2012 Rise Set
Actual Time 7:12 AM MST 4:44 PM MST
Civil Twilight 6:42 AM MST 5:14 PM MST
Nautical Twilight 6:09 AM MST 5:47 PM MST
Astronomical Twilight 5:36 AM MST 6:19 PM MST
Moon 11:34 PM MST (12/5) 11:39 AM MST (12/5)
Length of Visible Light 10h 31m
Length of Day
9h 32m
Waning Gibbous, 59% of the Moon is Illuminated
Dec 5
Waning Gibbous
Dec 6
Last Quarter
Dec 13
New
Dec 19
First Quarter
Dec 28
Full

Hourly Weather History & Observations

Time (MST) Temp. Windchill Dew Point Humidity Pressure Visibility Wind Dir Wind Speed Gust Speed Precip Events Conditions
12:53 AM 26.1 °F 17.6 °F 15.1 °F 63% 30.29 in 10.0 mi South 8.1 mph - N/A   Clear
1:53 AM 24.1 °F 17.0 °F 15.1 °F 69% 30.27 in 10.0 mi SSW 5.8 mph - N/A   Clear
2:53 AM 21.9 °F - 15.1 °F 75% 30.27 in 10.0 mi Calm Calm - N/A   Clear
3:53 AM 24.1 °F 19.7 °F 16.0 °F 71% 30.25 in 10.0 mi SSE 3.5 mph - N/A   Clear
4:53 AM 23.0 °F 18.4 °F 17.1 °F 78% 30.27 in 10.0 mi South 3.5 mph - N/A   Partly Cloudy
5:53 AM 24.1 °F 18.2 °F 18.0 °F 77% 30.25 in 10.0 mi SSE 4.6 mph - N/A   Clear
7:53 AM 25.0 °F 20.7 °F 19.0 °F 78% 30.27 in 10.0 mi SE 3.5 mph - N/A   Clear
8:53 AM 32.0 °F - 24.1 °F 73% 30.21 in 10.0 mi Calm Calm - N/A   Clear
9:53 AM 37.9 °F 33.5 °F 25.0 °F 60% 30.18 in 10.0 mi NW 5.8 mph - N/A   Clear
10:53 AM 46.0 °F 43.1 °F 26.1 °F 46% 30.09 in 10.0 mi North 5.8 mph - N/A   Scattered Clouds
12:53 PM 52.0 °F - 19.9 °F 28% 29.99 in 10.0 mi North 9.2 mph - N/A   Mostly Cloudy
1:53 PM 48.0 °F - 18.0 °F 30% 29.99 in 10.0 mi NNW 11.5 mph - N/A   Scattered Clouds
2:53 PM 48.9 °F - 19.0 °F 31% 30.01 in 10.0 mi NE 3.5 mph - N/A   Mostly Cloudy
3:53 PM 45.0 °F 39.7 °F 19.0 °F 36% 30.03 in 10.0 mi NNW 10.4 mph - N/A   Overcast
4:53 PM 43.0 °F - 21.0 °F 42% 30.06 in 10.0 mi Calm Calm - N/A   Overcast
5:53 PM 39.0 °F - 21.9 °F 50% 30.06 in 10.0 mi Calm Calm - 0.00 in   Overcast
6:53 PM 37.9 °F 35.5 °F 24.1 °F 57% 30.06 in 9.0 mi WNW 3.5 mph - 0.00 in Snow Light Snow
7:53 PM 37.0 °F 33.3 °F 24.1 °F 59% 30.09 in 10.0 mi SW 4.6 mph - 0.00 in   Overcast
8:53 PM 39.0 °F - 24.1 °F 55% 30.03 in 10.0 mi Calm Calm - N/A   Overcast
9:53 PM 39.0 °F 32.8 °F 27.0 °F 62% 29.99 in 10.0 mi SE 9.2 mph - N/A   Overcast
10:53 PM 36.0 °F 31.1 °F 27.0 °F 70% 29.95 in 10.0 mi South 5.8 mph - N/A   Overcast
11:53 PM 35.1 °F 31.0 °F 27.0 °F 72% 29.92 in 10.0 mi SSW 4.6 mph - N/A   Overcast